Tracking 27419 objects as of 9-Jun-2023
HD Live streaming from Space Station
objects crossing your sky now

THOR ABLESTAR DEB

Track THOR ABLESTAR DEB now!
10-day predictions


NORAD ID: 124
Int'l Code: 1961-015J
Perigee: 738.6 km
Apogee: 846.4 km
Inclination: 66.5 °
Period: 100.6 minutes
Semi major axis: 7163 km
RCS: 0.1021 m2 (medium)
Launch date: June 29, 1961
Source: United States (US)
Launch site: AIR FORCE EASTERN TEST RANGE (AFETR)

Note: This is SATELLITE DEBRIS
Your satellite tracking list
Your tracking list is empty




NASA's NSSDC Master Catalog

Two Line Element Set (TLE):
1 00124U 61015J   23159.54018769  .00001787  00000-0  67698-3 0  9992
2 00124  66.5446 290.8937 0075231 185.6423 174.3836 14.31910176200530
Source of the keplerian elements: AFSPC